| time (UTC) | temp F | wind direction | speed knots | gust knots | rain 1hr in | rain 24hr in | rain mn in | humidity % | barometer mb |
| 20260504045951 | 43 | 270 | 0.0 | 0.0 | 0.00 | 0.00 | 0.00 | 100 | 1012.7 |
| 20260504044953 | 44 | 270 | 0.0 | 0.0 | 0.00 | 0.00 | 0.00 | 100 | 1012.9 |
| 20260504043951 | 44 | 270 | 0.0 | 0.9 | 0.00 | 0.00 | 0.00 | 100 | 1013.0 |
| 20260504042953 | 44 | 247 | 0.9 | 1.7 | 0.00 | 0.00 | 0.00 | 100 | 1012.9 |
| 20260504041954 | 44 | 247 | 1.7 | 1.7 | 0.00 | 0.00 | 0.00 | 100 | 1012.9 |
| 20260504040953 | 44 | 233 | 3.5 | 5.2 | 0.00 | 0.00 | 0.00 | 100 | 1013.2 |
| 20260504035956 | 44 | 247 | 2.6 | 4.3 | 0.00 | 0.00 | 0.00 | 100 | 1013.3 |
| 20260504034959 | 43 | 247 | 0.9 | 0.9 | 0.00 | 0.00 | 0.00 | 100 | 1013.4 |
| 20260504034056 | 43 | 247 | 0.0 | 0.9 | 0.00 | 0.00 | 0.00 | 100 | 1013.4 |
| 20260504033057 | 42 | 247 | 0.0 | 0.0 | 0.00 | 0.00 | 0.00 | 100 | 1013.2 |
| 20260504031155 | 42 | 247 | 0.0 | 0.0 | 0.00 | 0.00 | 0.00 | 100 | 1012.8 |
| 20260504031058 | 42 | 247 | 0.0 | 0.0 | 0.00 | 0.00 | 0.00 | 100 | 1012.8 |
| 20260504030056 | 41 | 247 | 0.0 | 0.0 | 0.00 | 0.00 | 0.00 | 100 | 1012.7 |
| 20260504025058 | 41 | 247 | 0.0 | 0.0 | 0.00 | 0.00 | 0.00 | 100 | 1012.7 |
| 20260504024157 | 40 | 247 | 0.0 | 0.0 | 0.00 | 0.00 | 0.00 | 100 | 1012.7 |
| 20260504023156 | 42 | 247 | 0.0 | 0.0 | 0.00 | 0.00 | 0.00 | 100 | 1012.7 |
| 20260504022158 | 43 | 247 | 0.0 | 0.0 | 0.00 | 0.00 | 0.00 | 100 | 1012.8 |
| 20260504021256 | 44 | 247 | 0.0 | 0.0 | 0.00 | 0.00 | 0.00 | 100 | 1012.7 |
| 20260504020258 | 44 | 270 | 0.0 | 0.9 | 0.00 | 0.00 | 0.00 | 100 | 1012.8 |
| 20260504015357 | 45 | 270 | 0.0 | 0.0 | 0.00 | 0.00 | 0.00 | 100 | 1012.8 |
| 20260504014455 | 46 | 270 | 2.6 | 2.6 | 0.00 | 0.00 | 0.00 | 100 | 1012.8 |
| 20260504012455 | 47 | 270 | 0.9 | 0.9 | 0.00 | 0.00 | 0.00 | 100 | 1012.9 |
| 20260504010456 | 47 | 180 | 1.7 | 1.7 | 0.00 | 0.00 | 0.00 | 100 | 1012.8 |
| 20260504004457 | 47 | 270 | 1.7 | 1.7 | 0.00 | 0.00 | 0.00 | 100 | 1012.7 |
| 20260504003556 | 48 | 270 | 3.5 | 5.2 | 0.00 | 0.00 | 0.00 | 100 | 1012.7 |
| 20260504002555 | 48 | 247 | 6.1 | 11.3 | 0.00 | 0.00 | 0.00 | 100 | 1012.5 |
| 20260504001558 | 48 | 265 | 6.1 | 12.2 | 0.00 | 0.00 | 0.00 | 100 | 1012.5 |
| 20260504000558 | 48 | 270 | 1.7 | 2.6 | 0.00 | 0.00 | 0.00 | 100 | 1012.4 |
| 20260503235555 | 48 | 259 | 4.3 | 6.1 | 0.00 | 0.00 | 0.00 | 100 | 1012.4 |
| 20260503231558 | 50 | 270 | 5.2 | 7.0 | 0.00 | 0.00 | 0.00 | 100 | 1012.0 |
| 20260503230656 | 51 | 267 | 9.6 | 13.9 | 0.00 | 0.00 | 0.00 | 100 | 1011.8 |
| 20260503225658 | 51 | 266 | 7.8 | 10.4 | 0.00 | 0.00 | 0.00 | 100 | 1011.8 |
| 20260503224657 | 52 | 249 | 5.2 | 8.7 | 0.00 | 0.00 | 0.00 | 100 | 1011.8 |
| 20260503223654 | 52 | 257 | 7.0 | 10.4 | 0.00 | 0.00 | 0.00 | 100 | 1011.8 |
| 20260503222657 | 52 | 259 | 6.1 | 12.2 | 0.00 | 0.00 | 0.00 | 100 | 1011.6 |
| 20260503215656 | 53 | 254 | 7.0 | 13.0 | 0.00 | 0.00 | 0.00 | 100 | 1011.5 |
| 20260503215558 | 53 | 254 | 9.6 | 17.4 | 0.00 | 0.00 | 0.00 | 100 | 1011.6 |
| 20260503213556 | 53 | 268 | 7.0 | 15.6 | 0.00 | 0.00 | 0.00 | 100 | 1011.5 |
| 20260503211557 | 53 | 244 | 7.8 | 17.4 | 0.00 | 0.00 | 0.00 | 100 | 1011.5 |
| 20260503210557 | 53 | 242 | 8.7 | 12.2 | 0.00 | 0.00 | 0.00 | 100 | 1011.5 |
| 20260503204556 | 52 | 262 | 12.2 | 19.1 | 0.00 | 0.00 | 0.00 | 100 | 1011.6 |
| 20260503203556 | 52 | 244 | 7.0 | 12.2 | 0.00 | 0.00 | 0.00 | 100 | 1011.7 |
| 20260503202656 | 52 | 260 | 5.2 | 8.7 | 0.00 | 0.00 | 0.00 | 100 | 1011.7 |
| 20260503200756 | 51 | 197 | 3.5 | 9.6 | 0.00 | 0.00 | 0.00 | 100 | 1011.7 |
| 20260503195855 | 52 | 262 | 7.8 | 12.2 | 0.00 | 0.00 | 0.00 | 100 | 1011.8 |
| 20260503194854 | 51 | 215 | 7.0 | 11.3 | 0.00 | 0.00 | 0.00 | 100 | 1011.9 |
| 20260503194755 | 51 | 249 | 6.1 | 10.4 | 0.00 | 0.00 | 0.00 | 100 | 1011.9 |
| 20260503193755 | 50 | 243 | 3.5 | 7.8 | 0.00 | 0.00 | 0.00 | 100 | 1012.1 |
| 20260503190854 | 50 | 267 | 4.3 | 7.8 | 0.00 | 0.00 | 0.00 | 100 | 1012.6 |
| 20260503185856 | 51 | 265 | 7.8 | 12.2 | 0.00 | 0.00 | 0.00 | 100 | 1012.7 |
| 20260503184856 | 50 | 266 | 5.2 | 7.8 | 0.00 | 0.00 | 0.00 | 100 | 1012.7 |
| 20260503183955 | 49 | 233 | 4.3 | 7.0 | 0.00 | 0.00 | 0.00 | 100 | 1012.8 |
| 20260503182955 | 50 | 241 | 6.1 | 8.7 | 0.00 | 0.00 | 0.00 | 100 | 1013.0 |
| 20260503181957 | 48 | 266 | 5.2 | 7.8 | 0.00 | 0.00 | 0.00 | 100 | 1013.0 |
| 20260503181055 | 48 | 241 | 6.1 | 9.6 | 0.00 | 0.00 | 0.00 | 100 | 1013.0 |
| 20260503180056 | 48 | 256 | 5.2 | 9.6 | 0.00 | 0.00 | 0.00 | 100 | 1013.0 |
| 20260503175056 | 48 | 256 | 3.5 | 6.1 | 0.00 | 0.00 | 0.00 | 100 | 1013.1 |
| 20260503174155 | 47 | 208 | 5.2 | 7.8 | 0.00 | 0.00 | 0.00 | 100 | 1013.2 |
| 20260503173155 | 47 | 253 | 5.2 | 11.3 | 0.00 | 0.00 | 0.00 | 100 | 1013.3 |
| 20260503172154 | 47 | 251 | 5.2 | 9.6 | 0.00 | 0.00 | 0.00 | 100 | 1013.3 |
| 20260503170254 | 46 | 243 | 5.2 | 9.6 | 0.00 | 0.00 | 0.00 | 100 | 1013.4 |
| 20260503150255 | 43 | 263 | 4.3 | 7.0 | 0.00 | 0.00 | 0.00 | 100 | 1013.7 |
| 20260503140255 | 44 | 264 | 6.1 | 9.6 | 0.00 | 0.01 | 0.00 | 100 | 1013.9 |
| 20260503130355 | 42 | 243 | 3.5 | 7.0 | 0.00 | 0.01 | 0.00 | 100 | 1014.2 |
| 20260503110552 | 37 | 268 | 2.6 | 5.2 | 0.00 | 0.01 | 0.00 | 100 | 1013.4 |
| 20260503081052 | 35 | 270 | 1.7 | 2.6 | 0.00 | 0.02 | 0.00 | 100 | 1013.1 |
| 20260503072153 | 34 | 252 | 0.9 | 1.7 | 0.00 | 0.02 | 0.00 | 100 | 1013.3 |
| 20260503071153 | 34 | 247 | 1.7 | 3.5 | 0.00 | 0.02 | 0.00 | 100 | 1013.3 |